| time (UTC) | temp F | wind direction | speed MPH | gust MPH | rain 1hr in | rain 24hr in | rain mn in | humidity % | barometer mb |
| 20260905052549 | 80 | 49 | 0.0 | 5.0 | 0.00 | 0.00 | 0.00 | 29 | 1022.0 |
| 20260905052049 | 80 | 0 | 1.0 | 5.0 | 0.00 | 0.00 | 0.00 | 29 | 1021.9 |
| 20260905051556 | 80 | 61 | 0.0 | 2.0 | 0.00 | 0.00 | 0.00 | 29 | 1021.9 |
| 20260905051046 | 80 | 76 | 0.0 | 1.0 | 0.00 | 0.00 | 0.00 | 29 | 1021.9 |
| 20260905050550 | 80 | 0 | 0.0 | 4.0 | 0.00 | 0.00 | 0.00 | 29 | 1021.8 |
| 20260905050058 | 80 | 0 | 0.0 | 4.0 | 0.00 | 0.00 | 0.00 | 29 | 1021.9 |
| 20260905045543 | 80 | 48 | 2.0 | 8.0 | 0.00 | 0.00 | 0.00 | 28 | 1021.9 |
| 20260905045046 | 80 | 351 | 2.0 | 8.0 | 0.00 | 0.00 | 0.00 | 29 | 1022.0 |
| 20260905044601 | 80 | 2 | 2.0 | 4.0 | 0.00 | 0.00 | 0.00 | 29 | 1021.8 |
| 20260905044046 | 80 | 6 | 2.0 | 4.0 | 0.00 | 0.00 | 0.00 | 29 | 1021.8 |
| 20260905043543 | 81 | 360 | 1.0 | 4.0 | 0.00 | 0.00 | 0.00 | 29 | 1021.8 |
| 20260905043059 | 81 | 16 | 1.0 | 4.0 | 0.00 | 0.00 | 0.00 | 28 | 1021.7 |
| 20260905042549 | 81 | 7 | 0.0 | 3.0 | 0.00 | 0.00 | 0.00 | 28 | 1021.8 |
| 20260905042045 | 81 | 351 | 0.0 | 6.0 | 0.00 | 0.00 | 0.00 | 28 | 1021.8 |
| 20260905041554 | 81 | 0 | 1.0 | 6.0 | 0.00 | 0.00 | 0.00 | 28 | 1021.7 |
| 20260905041045 | 81 | 62 | 1.0 | 6.0 | 0.00 | 0.00 | 0.00 | 28 | 1021.6 |
| 20260905040545 | 81 | 90 | 1.0 | 6.0 | 0.00 | 0.00 | 0.00 | 28 | 1021.5 |
| 20260905040056 | 81 | 95 | 0.0 | 4.0 | 0.00 | 0.00 | 0.00 | 28 | 1021.4 |
| 20260905035546 | 81 | 351 | 0.0 | 9.0 | 0.00 | 0.00 | 0.00 | 28 | 1021.5 |
| 20260905035046 | 81 | 30 | 1.0 | 9.0 | 0.00 | 0.00 | 0.00 | 28 | 1021.5 |
| 20260905034601 | 81 | 0 | 1.0 | 6.0 | 0.00 | 0.00 | 0.00 | 28 | 1021.4 |
| 20260905034046 | 81 | 326 | 0.0 | 6.0 | 0.00 | 0.00 | 0.00 | 28 | 1021.3 |
| 20260905033543 | 81 | 62 | 1.0 | 7.0 | 0.00 | 0.00 | 0.00 | 28 | 1021.4 |
| 20260905033100 | 81 | 55 | 2.0 | 7.0 | 0.00 | 0.00 | 0.00 | 27 | 1021.4 |
| 20260905032546 | 81 | 116 | 1.0 | 6.0 | 0.00 | 0.00 | 0.00 | 27 | 1021.5 |
| 20260905032046 | 82 | 0 | 2.0 | 8.0 | 0.00 | 0.00 | 0.00 | 27 | 1021.5 |
| 20260905031559 | 82 | 38 | 1.0 | 9.0 | 0.00 | 0.00 | 0.00 | 27 | 1021.6 |
| 20260905031047 | 82 | 53 | 1.0 | 9.0 | 0.00 | 0.00 | 0.00 | 27 | 1021.6 |
| 20260905030543 | 82 | 64 | 1.0 | 8.0 | 0.00 | 0.00 | 0.00 | 26 | 1021.6 |
| 20260905025546 | 82 | 3 | 0.0 | 8.0 | 0.00 | 0.00 | 0.00 | 26 | 1021.5 |
| 20260905025046 | 82 | 0 | 1.0 | 8.0 | 0.00 | 0.00 | 0.00 | 26 | 1021.6 |
| 20260905024632 | 82 | 154 | 1.0 | 8.0 | 0.00 | 0.00 | 0.00 | 26 | 1021.7 |
| 20260905024050 | 82 | 0 | 1.0 | 4.0 | 0.00 | 0.00 | 0.00 | 26 | 1021.6 |
| 20260905023548 | 82 | 21 | 1.0 | 7.0 | 0.00 | 0.00 | 0.00 | 26 | 1021.7 |
| 20260905023059 | 82 | 62 | 1.0 | 7.0 | 0.00 | 0.00 | 0.00 | 26 | 1021.7 |
| 20260905022545 | 83 | 62 | 0.0 | 4.0 | 0.00 | 0.00 | 0.00 | 26 | 1021.6 |
| 20260905022045 | 83 | 0 | 0.0 | 6.0 | 0.00 | 0.00 | 0.00 | 26 | 1021.7 |
| 20260905021556 | 83 | 0 | 0.0 | 6.0 | 0.00 | 0.00 | 0.00 | 26 | 1021.7 |
| 20260905021046 | 83 | 62 | 0.0 | 4.0 | 0.00 | 0.00 | 0.00 | 26 | 1021.6 |
| 20260905020547 | 83 | 48 | 0.0 | 3.0 | 0.00 | 0.00 | 0.00 | 25 | 1021.6 |
| 20260905020054 | 83 | 54 | 0.0 | 4.0 | 0.00 | 0.00 | 0.00 | 25 | 1021.7 |
| 20260905015546 | 83 | 116 | 0.0 | 4.0 | 0.00 | 0.00 | 0.00 | 25 | 1021.6 |
| 20260905015045 | 83 | 42 | 0.0 | 5.0 | 0.00 | 0.00 | 0.00 | 25 | 1021.7 |
| 20260905014558 | 83 | 43 | 0.0 | 5.0 | 0.00 | 0.00 | 0.00 | 24 | 1021.8 |
| 20260905014049 | 83 | 0 | 0.0 | 4.0 | 0.00 | 0.00 | 0.00 | 24 | 1021.8 |
| 20260905013546 | 83 | 0 | 1.0 | 4.0 | 0.00 | 0.00 | 0.00 | 24 | 1021.8 |
| 20260905013056 | 84 | 30 | 0.0 | 4.0 | 0.00 | 0.00 | 0.00 | 24 | 1021.7 |
| 20260905012546 | 84 | 63 | 0.0 | 4.0 | 0.00 | 0.00 | 0.00 | 24 | 1021.8 |
| 20260905012045 | 84 | 0 | 0.0 | 2.0 | 0.00 | 0.00 | 0.00 | 23 | 1021.7 |
| 20260905011600 | 84 | 0 | 0.0 | 3.0 | 0.00 | 0.00 | 0.00 | 23 | 1021.8 |
| 20260905011048 | 84 | 158 | 0.0 | 6.0 | 0.00 | 0.00 | 0.00 | 23 | 1021.9 |
| 20260905010546 | 84 | 82 | 0.0 | 7.0 | 0.00 | 0.00 | 0.00 | 23 | 1021.9 |
| 20260905010106 | 84 | 0 | 1.0 | 7.0 | 0.00 | 0.00 | 0.00 | 23 | 1022.0 |
| 20260905005546 | 84 | 346 | 1.0 | 6.0 | 0.00 | 0.00 | 0.00 | 22 | 1021.9 |
| 20260905005046 | 85 | 0 | 1.0 | 8.0 | 0.00 | 0.00 | 0.00 | 22 | 1021.9 |
| 20260905004603 | 85 | 80 | 2.0 | 8.0 | 0.00 | 0.00 | 0.00 | 22 | 1021.9 |
| 20260905004045 | 85 | 86 | 2.0 | 7.0 | 0.00 | 0.00 | 0.00 | 22 | 1021.9 |
| 20260905003546 | 85 | 28 | 1.0 | 6.0 | 0.00 | 0.00 | 0.00 | 22 | 1021.9 |
| 20260905003101 | 85 | 72 | 1.0 | 9.0 | 0.00 | 0.00 | 0.00 | 22 | 1021.9 |
| 20260905002544 | 85 | 62 | 2.0 | 9.0 | 0.00 | 0.00 | 0.00 | 22 | 1021.9 |
| 20260905002047 | 85 | 28 | 2.0 | 9.0 | 0.00 | 0.00 | 0.00 | 22 | 1021.9 |
| 20260905001606 | 85 | 71 | 2.0 | 9.0 | 0.00 | 0.00 | 0.00 | 22 | 1021.9 |
| 20260905001049 | 85 | 95 | 1.0 | 6.0 | 0.00 | 0.00 | 0.00 | 22 | 1021.9 |
| 20260905000546 | 85 | 128 | 2.0 | 7.0 | 0.00 | 0.00 | 0.00 | 21 | 1021.9 |
| 20260905000059 | 85 | 66 | 2.0 | 7.0 | 0.00 | 0.00 | 0.00 | 21 | 1021.9 |
| 20260904235542 | 85 | 145 | 2.0 | 7.0 | 0.00 | 0.00 | 0.00 | 21 | 1021.9 |
| 20260904235045 | 85 | 151 | 1.0 | 7.0 | 0.00 | 0.00 | 0.00 | 21 | 1021.9 |
| 20260904234604 | 86 | 24 | 2.0 | 8.0 | 0.00 | 0.00 | 0.00 | 21 | 1021.9 |
| 20260904234045 | 86 | 62 | 2.0 | 8.0 | 0.00 | 0.00 | 0.00 | 21 | 1021.9 |
| 20260904233545 | 86 | 119 | 3.0 | 8.0 | 0.00 | 0.00 | 0.00 | 21 | 1021.9 |
| 20260904233102 | 86 | 128 | 3.0 | 8.0 | 0.00 | 0.00 | 0.00 | 20 | 1021.9 |
| 20260904232546 | 87 | 95 | 2.0 | 8.0 | 0.00 | 0.00 | 0.00 | 20 | 1021.9 |
| 20260904232043 | 87 | 65 | 2.0 | 7.0 | 0.00 | 0.00 | 0.00 | 20 | 1021.9 |
| 20260904231604 | 87 | 91 | 2.0 | 7.0 | 0.00 | 0.00 | 0.00 | 20 | 1021.9 |
| 20260904231050 | 87 | 127 | 2.0 | 7.0 | 0.00 | 0.00 | 0.00 | 19 | 1021.9 |
| 20260904230546 | 87 | 74 | 2.0 | 10.0 | 0.00 | 0.00 | 0.00 | 19 | 1021.8 |
| 20260904230059 | 87 | 41 | 2.0 | 10.0 | 0.00 | 0.00 | 0.00 | 19 | 1021.8 |
| 20260904225543 | 87 | 86 | 2.0 | 10.0 | 0.00 | 0.00 | 0.00 | 19 | 1021.9 |
| 20260904225046 | 87 | 2 | 2.0 | 10.0 | 0.00 | 0.00 | 0.00 | 19 | 1021.9 |
| 20260904224558 | 88 | 43 | 3.0 | 10.0 | 0.00 | 0.00 | 0.00 | 19 | 1021.9 |
| 20260904224044 | 88 | 114 | 2.0 | 8.0 | 0.00 | 0.00 | 0.00 | 19 | 1021.8 |
| 20260904223544 | 88 | 48 | 2.0 | 8.0 | 0.00 | 0.00 | 0.00 | 19 | 1021.8 |
| 20260904223109 | 88 | 103 | 2.0 | 7.0 | 0.00 | 0.00 | 0.00 | 19 | 1021.8 |
| 20260904222545 | 88 | 109 | 2.0 | 8.0 | 0.00 | 0.00 | 0.00 | 19 | 1021.9 |
| 20260904222043 | 88 | 70 | 3.0 | 8.0 | 0.00 | 0.00 | 0.00 | 19 | 1021.8 |
| 20260904221610 | 88 | 95 | 1.0 | 6.0 | 0.00 | 0.00 | 0.00 | 19 | 1021.9 |
| 20260904221043 | 88 | 109 | 0.0 | 5.0 | 0.00 | 0.00 | 0.00 | 19 | 1021.8 |
| 20260904220546 | 88 | 0 | 1.0 | 4.0 | 0.00 | 0.00 | 0.00 | 18 | 1021.9 |
| 20260904220104 | 89 | 114 | 1.0 | 4.0 | 0.00 | 0.00 | 0.00 | 18 | 1021.9 |
| 20260904215545 | 90 | 0 | 1.0 | 5.0 | 0.00 | 0.00 | 0.00 | 17 | 1021.9 |
| 20260904215045 | 90 | 126 | 1.0 | 5.0 | 0.00 | 0.00 | 0.00 | 17 | 1021.9 |
| 20260904214607 | 90 | 59 | 1.0 | 7.0 | 0.00 | 0.00 | 0.00 | 17 | 1021.9 |
| 20260904214043 | 90 | 164 | 1.0 | 7.0 | 0.00 | 0.00 | 0.00 | 17 | 1021.9 |
| 20260904213544 | 90 | 5 | 2.0 | 7.0 | 0.00 | 0.00 | 0.00 | 17 | 1021.7 |
| 20260904213104 | 90 | 10 | 0.0 | 3.0 | 0.00 | 0.00 | 0.00 | 17 | 1021.7 |
| 20260904212543 | 90 | 0 | 0.0 | 5.0 | 0.00 | 0.00 | 0.00 | 17 | 1021.9 |
| 20260904212046 | 90 | 19 | 1.0 | 6.0 | 0.00 | 0.00 | 0.00 | 17 | 1021.9 |
| 20260904211612 | 90 | 22 | 1.0 | 6.0 | 0.00 | 0.00 | 0.00 | 17 | 1021.9 |
| 20260904211046 | 90 | 355 | 1.0 | 3.0 | 0.00 | 0.00 | 0.00 | 18 | 1021.9 |
| 20260904210544 | 89 | 14 | 0.0 | 2.0 | 0.00 | 0.00 | 0.00 | 18 | 1021.9 |
| 20260904210106 | 89 | 0 | 0.0 | 1.0 | 0.00 | 0.00 | 0.00 | 19 | 1021.9 |
| 20260904205546 | 89 | 0 | 0.0 | 2.0 | 0.00 | 0.00 | 0.00 | 20 | 1021.9 |
| 20260904205043 | 89 | 0 | 0.0 | 4.0 | 0.00 | 0.00 | 0.00 | 20 | 1021.9 |
| 20260904204605 | 89 | 346 | 1.0 | 4.0 | 0.00 | 0.00 | 0.00 | 20 | 1021.9 |
| 20260904204045 | 89 | 341 | 0.0 | 0.0 | 0.00 | 0.00 | 0.00 | 21 | 1021.8 |
| 20260904203543 | 89 | 0 | 0.0 | 0.0 | 0.00 | 0.00 | 0.00 | 21 | 1021.8 |
| 20260904203101 | 89 | 0 | 0.0 | 0.0 | 0.00 | 0.00 | 0.00 | 21 | 1021.8 |
| 20260904202542 | 89 | 0 | 0.0 | 2.0 | 0.00 | 0.00 | 0.00 | 21 | 1021.7 |
| 20260904202042 | 88 | 0 | 0.0 | 4.0 | 0.00 | 0.00 | 0.00 | 21 | 1021.8 |
| 20260904201602 | 89 | 338 | 0.0 | 4.0 | 0.00 | 0.00 | 0.00 | 21 | 1021.7 |
| 20260904201045 | 90 | 334 | 1.0 | 4.0 | 0.00 | 0.00 | 0.00 | 19 | 1021.7 |
| 20260904200542 | 91 | 0 | 0.0 | 1.0 | 0.00 | 0.00 | 0.00 | 19 | 1021.6 |
| 20260904200106 | 91 | 0 | 0.0 | 0.0 | 0.00 | 0.00 | 0.00 | 18 | 1021.6 |
| 20260904195543 | 91 | 0 | 0.0 | 0.0 | 0.00 | 0.00 | 0.00 | 18 | 1021.6 |
| 20260904195045 | 91 | 0 | 0.0 | 0.0 | 0.00 | 0.00 | 0.00 | 18 | 1021.4 |
| 20260904194605 | 92 | 0 | 0.0 | 0.0 | 0.00 | 0.00 | 0.00 | 19 | 1021.4 |
| 20260904194043 | 92 | 0 | 0.0 | 0.0 | 0.00 | 0.00 | 0.00 | 18 | 1021.3 |
| 20260904193546 | 92 | 0 | 0.0 | 0.0 | 0.00 | 0.00 | 0.00 | 18 | 1021.3 |
| 20260904193056 | 92 | 0 | 0.0 | 0.0 | 0.00 | 0.00 | 0.00 | 19 | 1021.3 |
| 20260904192545 | 93 | 0 | 0.0 | 0.0 | 0.00 | 0.00 | 0.00 | 17 | 1021.2 |
| 20260904192046 | 93 | 0 | 0.0 | 0.0 | 0.00 | 0.00 | 0.00 | 17 | 1021.3 |
| 20260904191602 | 93 | 0 | 0.0 | 0.0 | 0.00 | 0.00 | 0.00 | 16 | 1021.3 |
| 20260904191045 | 94 | 0 | 0.0 | 1.0 | 0.00 | 0.00 | 0.00 | 16 | 1021.2 |
| 20260904190543 | 94 | 0 | 0.0 | 1.0 | 0.00 | 0.00 | 0.00 | 16 | 1021.1 |
| 20260904190058 | 94 | 232 | 0.0 | 1.0 | 0.00 | 0.00 | 0.00 | 14 | 1021.2 |
| 20260904185543 | 94 | 0 | 0.0 | 1.0 | 0.00 | 0.00 | 0.00 | 15 | 1021.1 |
| 20260904185044 | 94 | 0 | 0.0 | 1.0 | 0.00 | 0.00 | 0.00 | 15 | 1021.0 |
| 20260904184606 | 95 | 232 | 0.0 | 1.0 | 0.00 | 0.00 | 0.00 | 15 | 1021.0 |
| 20260904184046 | 95 | 0 | 0.0 | 1.0 | 0.00 | 0.00 | 0.00 | 15 | 1021.1 |
| 20260904183546 | 95 | 0 | 0.0 | 1.0 | 0.00 | 0.00 | 0.00 | 15 | 1021.1 |
| 20260904183058 | 95 | 0 | 0.0 | 1.0 | 0.00 | 0.00 | 0.00 | 14 | 1021.1 |
| 20260904182546 | 96 | 0 | 0.0 | 1.0 | 0.00 | 0.00 | 0.00 | 14 | 1021.1 |
| 20260904182043 | 96 | 0 | 0.0 | 2.0 | 0.00 | 0.00 | 0.00 | 14 | 1021.1 |
| 20260904181557 | 96 | 0 | 0.0 | 2.0 | 0.00 | 0.00 | 0.00 | 14 | 1021.1 |
| 20260904181046 | 96 | 0 | 0.0 | 2.0 | 0.00 | 0.00 | 0.00 | 14 | 1021.1 |
| 20260904180546 | 96 | 0 | 0.0 | 3.0 | 0.00 | 0.00 | 0.00 | 13 | 1021.1 |
| 20260904180109 | 96 | 0 | 0.0 | 3.0 | 0.00 | 0.00 | 0.00 | 13 | 1021.1 |
| 20260904175544 | 96 | 228 | 0.0 | 1.0 | 0.00 | 0.00 | 0.00 | 14 | 1021.1 |
| 20260904175043 | 97 | 0 | 0.0 | 2.0 | 0.00 | 0.00 | 0.00 | 13 | 1021.1 |
| 20260904174559 | 97 | 0 | 0.0 | 5.0 | 0.00 | 0.00 | 0.00 | 13 | 1021.1 |
| 20260904174044 | 97 | 0 | 0.0 | 5.0 | 0.00 | 0.00 | 0.00 | 13 | 1021.1 |
| 20260904173542 | 97 | 222 | 1.0 | 5.0 | 0.00 | 0.00 | 0.00 | 13 | 1021.1 |
| 20260904173056 | 97 | 224 | 2.0 | 3.0 | 0.00 | 0.00 | 0.00 | 13 | 1021.1 |
| 20260904172544 | 98 | 167 | 1.0 | 4.0 | 0.00 | 0.00 | 0.00 | 13 | 1021.2 |
| 20260904172043 | 97 | 245 | 1.0 | 4.0 | 0.00 | 0.00 | 0.00 | 13 | 1021.2 |
| 20260904171601 | 98 | 193 | 0.0 | 4.0 | 0.00 | 0.00 | 0.00 | 13 | 1021.3 |
| 20260904171043 | 98 | 0 | 1.0 | 8.0 | 0.00 | 0.00 | 0.00 | 13 | 1021.2 |
| 20260904170543 | 98 | 211 | 0.0 | 8.0 | 0.00 | 0.00 | 0.00 | 13 | 1021.1 |
| 20260904170059 | 98 | 290 | 2.0 | 8.0 | 0.00 | 0.00 | 0.00 | 12 | 1021.2 |
| 20260904165547 | 98 | 201 | 1.0 | 6.0 | 0.00 | 0.00 | 0.00 | 12 | 1021.1 |
| 20260904165046 | 98 | 0 | 2.0 | 6.0 | 0.00 | 0.00 | 0.00 | 12 | 1021.1 |
| 20260904164558 | 98 | 236 | 1.0 | 5.0 | 0.00 | 0.00 | 0.00 | 12 | 1021.1 |
| 20260904164048 | 97 | 218 | 2.0 | 7.0 | 0.00 | 0.00 | 0.00 | 12 | 1021.1 |
| 20260904163542 | 97 | 182 | 3.0 | 7.0 | 0.00 | 0.00 | 0.00 | 12 | 1021.0 |
| 20260904163109 | 97 | 261 | 2.0 | 5.0 | 0.00 | 0.00 | 0.00 | 12 | 1021.1 |
| 20260904162543 | 97 | 192 | 2.0 | 9.0 | 0.00 | 0.00 | 0.00 | 12 | 1021.1 |
| 20260904162042 | 98 | 204 | 2.0 | 9.0 | 0.00 | 0.00 | 0.00 | 12 | 1021.3 |
| 20260904161557 | 98 | 207 | 2.0 | 7.0 | 0.00 | 0.00 | 0.00 | 12 | 1021.3 |
| 20260904161043 | 98 | 217 | 3.0 | 8.0 | 0.00 | 0.00 | 0.00 | 11 | 1021.4 |
| 20260904160543 | 98 | 263 | 3.0 | 10.0 | 0.00 | 0.00 | 0.00 | 12 | 1021.4 |
| 20260904160057 | 98 | 220 | 4.0 | 10.0 | 0.00 | 0.00 | 0.00 | 12 | 1021.3 |
| 20260904155542 | 98 | 203 | 3.0 | 7.0 | 0.00 | 0.00 | 0.00 | 12 | 1021.3 |
| 20260904155045 | 98 | 235 | 1.0 | 6.0 | 0.00 | 0.00 | 0.00 | 12 | 1021.4 |
| 20260904154555 | 98 | 213 | 2.0 | 8.0 | 0.00 | 0.00 | 0.00 | 12 | 1021.4 |
| 20260904154045 | 97 | 205 | 3.0 | 10.0 | 0.00 | 0.00 | 0.00 | 12 | 1021.3 |
| 20260904153543 | 97 | 155 | 4.0 | 10.0 | 0.00 | 0.00 | 0.00 | 12 | 1021.3 |
| 20260904153107 | 98 | 171 | 3.0 | 9.0 | 0.00 | 0.00 | 0.00 | 11 | 1021.4 |
| 20260904152545 | 98 | 143 | 3.0 | 9.0 | 0.00 | 0.00 | 0.00 | 11 | 1021.5 |
| 20260904152046 | 98 | 188 | 2.0 | 10.0 | 0.00 | 0.00 | 0.00 | 12 | 1021.4 |
| 20260904151558 | 97 | 161 | 4.0 | 10.0 | 0.00 | 0.00 | 0.00 | 12 | 1021.4 |
| 20260904151044 | 97 | 143 | 3.0 | 9.0 | 0.00 | 0.00 | 0.00 | 12 | 1021.5 |
| 20260904150543 | 97 | 139 | 3.0 | 9.0 | 0.00 | 0.00 | 0.00 | 12 | 1021.6 |
| 20260904150056 | 97 | 189 | 5.0 | 8.0 | 0.00 | 0.00 | 0.00 | 12 | 1021.6 |
| 20260904145543 | 98 | 185 | 2.0 | 8.0 | 0.00 | 0.00 | 0.00 | 12 | 1021.5 |
| 20260904145043 | 98 | 223 | 4.0 | 7.0 | 0.00 | 0.00 | 0.00 | 12 | 1021.5 |
| 20260904144557 | 98 | 234 | 1.0 | 6.0 | 0.00 | 0.00 | 0.00 | 12 | 1021.5 |
| 20260904144044 | 99 | 234 | 2.0 | 6.0 | 0.00 | 0.00 | 0.00 | 11 | 1021.6 |
| 20260904143543 | 98 | 0 | 2.0 | 7.0 | 0.00 | 0.00 | 0.00 | 11 | 1021.7 |
| 20260904143102 | 97 | 213 | 2.0 | 7.0 | 0.00 | 0.00 | 0.00 | 12 | 1021.8 |
| 20260904142546 | 98 | 184 | 2.0 | 7.0 | 0.00 | 0.00 | 0.00 | 11 | 1021.8 |
| 20260904142044 | 98 | 176 | 4.0 | 10.0 | 0.00 | 0.00 | 0.00 | 12 | 1021.8 |
| 20260904141617 | 98 | 0 | 3.0 | 10.0 | 0.00 | 0.00 | 0.00 | 12 | 1021.9 |
| 20260904141043 | 97 | 218 | 4.0 | 10.0 | 0.00 | 0.00 | 0.00 | 12 | 1021.9 |
| 20260904140542 | 97 | 189 | 4.0 | 9.0 | 0.00 | 0.00 | 0.00 | 12 | 1021.9 |
| 20260904140056 | 97 | 157 | 1.0 | 7.0 | 0.00 | 0.00 | 0.00 | 13 | 1022.0 |
| 20260904135542 | 97 | 187 | 3.0 | 7.0 | 0.00 | 0.00 | 0.00 | 13 | 1022.0 |
| 20260904135043 | 97 | 184 | 3.0 | 8.0 | 0.00 | 0.00 | 0.00 | 13 | 1022.1 |
| 20260904134558 | 97 | 198 | 3.0 | 8.0 | 0.00 | 0.00 | 0.00 | 13 | 1022.2 |
| 20260904134044 | 98 | 201 | 3.0 | 8.0 | 0.00 | 0.00 | 0.00 | 12 | 1022.2 |
| 20260904133544 | 97 | 168 | 1.0 | 9.0 | 0.00 | 0.00 | 0.00 | 12 | 1022.3 |
| 20260904133100 | 98 | 166 | 3.0 | 9.0 | 0.00 | 0.00 | 0.00 | 13 | 1022.3 |
| 20260904132544 | 98 | 200 | 1.0 | 7.0 | 0.00 | 0.00 | 0.00 | 13 | 1022.3 |
| 20260904132046 | 97 | 11 | 1.0 | 7.0 | 0.00 | 0.00 | 0.00 | 13 | 1022.4 |
| 20260904131631 | 98 | 257 | 3.0 | 7.0 | 0.00 | 0.00 | 0.00 | 13 | 1022.4 |
| 20260904131045 | 97 | 120 | 1.0 | 8.0 | 0.00 | 0.00 | 0.00 | 13 | 1022.4 |
| 20260904130545 | 97 | 194 | 3.0 | 8.0 | 0.00 | 0.00 | 0.00 | 13 | 1022.5 |
| 20260904130054 | 97 | 216 | 2.0 | 9.0 | 0.00 | 0.00 | 0.00 | 13 | 1022.5 |
| 20260904125544 | 96 | 220 | 4.0 | 9.0 | 0.00 | 0.00 | 0.00 | 14 | 1022.7 |
| 20260904125044 | 96 | 118 | 1.0 | 7.0 | 0.00 | 0.00 | 0.00 | 14 | 1022.7 |
| 20260904124558 | 95 | 176 | 1.0 | 7.0 | 0.00 | 0.00 | 0.00 | 15 | 1022.8 |
| 20260904124043 | 94 | 194 | 4.0 | 7.0 | 0.00 | 0.00 | 0.00 | 15 | 1022.8 |
| 20260904123544 | 95 | 232 | 1.0 | 8.0 | 0.00 | 0.00 | 0.00 | 14 | 1022.9 |
| 20260904123107 | 94 | 209 | 1.0 | 8.0 | 0.00 | 0.00 | 0.00 | 15 | 1022.9 |
| 20260904122543 | 96 | 194 | 2.0 | 7.0 | 0.00 | 0.00 | 0.00 | 14 | 1022.9 |
| 20260904122043 | 94 | 216 | 2.0 | 7.0 | 0.00 | 0.00 | 0.00 | 15 | 1023.0 |
| 20260904121557 | 95 | 188 | 2.0 | 8.0 | 0.00 | 0.00 | 0.00 | 14 | 1023.1 |
| 20260904121045 | 94 | 215 | 3.0 | 8.0 | 0.00 | 0.00 | 0.00 | 15 | 1023.2 |
| 20260904120545 | 95 | 208 | 3.0 | 8.0 | 0.00 | 0.00 | 0.00 | 15 | 1023.2 |
| 20260904120057 | 94 | 204 | 4.0 | 7.0 | 0.00 | 0.00 | 0.00 | 15 | 1023.3 |
| 20260904115543 | 94 | 209 | 2.0 | 7.0 | 0.00 | 0.00 | 0.00 | 14 | 1023.4 |
| 20260904115044 | 94 | 221 | 1.0 | 4.0 | 0.00 | 0.00 | 0.00 | 14 | 1023.4 |
| 20260904114601 | 94 | 122 | 1.0 | 7.0 | 0.00 | 0.00 | 0.00 | 14 | 1023.5 |
| 20260904114044 | 94 | 166 | 2.0 | 7.0 | 0.00 | 0.00 | 0.00 | 14 | 1023.4 |
| 20260904113544 | 96 | 174 | 0.0 | 5.0 | 0.00 | 0.00 | 0.00 | 14 | 1023.5 |
| 20260904113057 | 95 | 209 | 1.0 | 5.0 | 0.00 | 0.00 | 0.00 | 14 | 1023.6 |
| 20260904112545 | 94 | 186 | 1.0 | 5.0 | 0.00 | 0.00 | 0.00 | 15 | 1023.6 |
| 20260904112043 | 95 | 188 | 1.0 | 4.0 | 0.00 | 0.00 | 0.00 | 15 | 1023.7 |
| 20260904111557 | 93 | 0 | 1.0 | 5.0 | 0.00 | 0.00 | 0.00 | 15 | 1023.8 |
| 20260904111043 | 94 | 0 | 0.0 | 5.0 | 0.00 | 0.00 | 0.00 | 15 | 1023.8 |
| 20260904110543 | 94 | 220 | 1.0 | 5.0 | 0.00 | 0.00 | 0.00 | 15 | 1023.9 |
| 20260904110055 | 94 | 0 | 2.0 | 5.0 | 0.00 | 0.00 | 0.00 | 16 | 1024.0 |
| 20260904105543 | 95 | 215 | 0.0 | 5.0 | 0.00 | 0.00 | 0.00 | 16 | 1024.0 |
| 20260904105044 | 95 | 0 | 0.0 | 5.0 | 0.00 | 0.00 | 0.00 | 16 | 1024.0 |
| 20260904104611 | 93 | 238 | 1.0 | 5.0 | 0.00 | 0.00 | 0.00 | 16 | 1024.1 |
| 20260904104043 | 92 | 204 | 1.0 | 6.0 | 0.00 | 0.00 | 0.00 | 17 | 1024.2 |
| 20260904103543 | 91 | 188 | 0.0 | 6.0 | 0.00 | 0.00 | 0.00 | 17 | 1024.1 |
| 20260904103105 | 90 | 187 | 2.0 | 6.0 | 0.00 | 0.00 | 0.00 | 18 | 1024.2 |
| 20260904102546 | 90 | 18 | 0.0 | 3.0 | 0.00 | 0.00 | 0.00 | 18 | 1024.3 |
| 20260904102043 | 91 | 194 | 1.0 | 3.0 | 0.00 | 0.00 | 0.00 | 16 | 1024.3 |
| 20260904101603 | 91 | 0 | 0.0 | 3.0 | 0.00 | 0.00 | 0.00 | 17 | 1024.4 |
| 20260904101044 | 90 | 0 | 0.0 | 3.0 | 0.00 | 0.00 | 0.00 | 17 | 1024.4 |
| 20260904100548 | 90 | 337 | 1.0 | 3.0 | 0.00 | 0.00 | 0.00 | 17 | 1024.5 |
| 20260904100053 | 91 | 4 | 1.0 | 3.0 | 0.00 | 0.00 | 0.00 | 16 | 1024.6 |
| 20260904095546 | 92 | 31 | 0.0 | 2.0 | 0.00 | 0.00 | 0.00 | 16 | 1024.5 |
| 20260904095045 | 90 | 0 | 0.0 | 2.0 | 0.00 | 0.00 | 0.00 | 17 | 1024.5 |
| 20260904094558 | 87 | 0 | 0.0 | 2.0 | 0.00 | 0.00 | 0.00 | 19 | 1024.4 |
| 20260904094043 | 88 | 0 | 0.0 | 3.0 | 0.00 | 0.00 | 0.00 | 19 | 1024.3 |
| 20260904093544 | 88 | 0 | 0.0 | 3.0 | 0.00 | 0.00 | 0.00 | 20 | 1024.4 |
| 20260904093054 | 87 | 12 | 1.0 | 3.0 | 0.00 | 0.00 | 0.00 | 20 | 1024.4 |
| 20260904092543 | 89 | 333 | 0.0 | 3.0 | 0.00 | 0.00 | 0.00 | 20 | 1024.4 |
| 20260904092045 | 88 | 333 | 1.0 | 3.0 | 0.00 | 0.00 | 0.00 | 20 | 1024.4 |
| 20260904091601 | 87 | 295 | 1.0 | 3.0 | 0.00 | 0.00 | 0.00 | 21 | 1024.4 |
| 20260904091044 | 87 | 0 | 0.0 | 3.0 | 0.00 | 0.00 | 0.00 | 20 | 1024.5 |
| 20260904090543 | 85 | 0 | 1.0 | 4.0 | 0.00 | 0.00 | 0.00 | 20 | 1024.4 |
| 20260904090059 | 85 | 2 | 1.0 | 4.0 | 0.00 | 0.00 | 0.00 | 21 | 1024.3 |
| 20260904085543 | 85 | 358 | 1.0 | 3.0 | 0.00 | 0.00 | 0.00 | 21 | 1024.3 |
| 20260904085045 | 83 | 0 | 0.0 | 3.0 | 0.00 | 0.00 | 0.00 | 21 | 1024.3 |
| 20260904084559 | 83 | 131 | 0.0 | 3.0 | 0.00 | 0.00 | 0.00 | 21 | 1024.3 |
| 20260904084042 | 84 | 132 | 0.0 | 3.0 | 0.00 | 0.00 | 0.00 | 21 | 1024.2 |
| 20260904083544 | 83 | 0 | 0.0 | 3.0 | 0.00 | 0.00 | 0.00 | 22 | 1024.2 |
| 20260904083058 | 83 | 0 | 0.0 | 3.0 | 0.00 | 0.00 | 0.00 | 22 | 1024.3 |
| 20260904082543 | 82 | 0 | 0.0 | 4.0 | 0.00 | 0.00 | 0.00 | 22 | 1024.3 |
| 20260904082042 | 82 | 0 | 1.0 | 4.0 | 0.00 | 0.00 | 0.00 | 22 | 1024.1 |
| 20260904081601 | 83 | 49 | 0.0 | 4.0 | 0.00 | 0.00 | 0.00 | 22 | 1024.1 |
| 20260904081043 | 82 | 26 | 2.0 | 5.0 | 0.00 | 0.00 | 0.00 | 22 | 1024.2 |
| 20260904080543 | 82 | 7 | 2.0 | 5.0 | 0.00 | 0.00 | 0.00 | 22 | 1024.0 |
| 20260904080105 | 83 | 5 | 1.0 | 4.0 | 0.00 | 0.00 | 0.00 | 21 | 1024.0 |
| 20260904075543 | 82 | 12 | 1.0 | 4.0 | 0.00 | 0.00 | 0.00 | 22 | 1024.0 |
| 20260904075043 | 82 | 12 | 0.0 | 3.0 | 0.00 | 0.00 | 0.00 | 23 | 1024.0 |
| 20260904074622 | 80 | 0 | 0.0 | 3.0 | 0.00 | 0.00 | 0.00 | 23 | 1024.0 |
| 20260904074045 | 80 | 114 | 0.0 | 2.0 | 0.00 | 0.00 | 0.00 | 24 | 1024.0 |
| 20260904073542 | 79 | 0 | 0.0 | 3.0 | 0.00 | 0.00 | 0.00 | 24 | 1023.9 |
| 20260904073055 | 79 | 94 | 0.0 | 3.0 | 0.00 | 0.00 | 0.00 | 24 | 1024.0 |
| 20260904072543 | 79 | 0 | 0.0 | 3.0 | 0.00 | 0.00 | 0.00 | 24 | 1024.0 |
| 20260904072043 | 78 | 182 | 0.0 | 2.0 | 0.00 | 0.00 | 0.00 | 25 | 1024.0 |
| 20260904071602 | 78 | 0 | 0.0 | 3.0 | 0.00 | 0.00 | 0.00 | 25 | 1024.0 |
| 20260904071043 | 78 | 0 | 0.0 | 3.0 | 0.00 | 0.00 | 0.00 | 25 | 1024.0 |
| 20260904070548 | 77 | 0 | 0.0 | 2.0 | 0.00 | 0.00 | 0.00 | 25 | 1023.9 |
| 20260904070059 | 77 | 137 | 0.0 | 2.0 | 0.00 | 0.00 | 0.00 | 25 | 1024.0 |
| 20260904065542 | 77 | 136 | 0.0 | 2.0 | 0.00 | 0.00 | 0.00 | 25 | 1023.8 |
| 20260904065043 | 76 | 0 | 0.0 | 2.0 | 0.00 | 0.00 | 0.00 | 25 | 1023.8 |
| 20260904064557 | 76 | 0 | 0.0 | 2.0 | 0.00 | 0.00 | 0.00 | 25 | 1023.8 |
| 20260904064043 | 76 | 0 | 0.0 | 2.0 | 0.00 | 0.00 | 0.00 | 26 | 1023.8 |
| 20260904063544 | 75 | 0 | 0.0 | 2.0 | 0.00 | 0.00 | 0.00 | 26 | 1023.7 |
| 20260904063112 | 75 | 0 | 0.0 | 2.0 | 0.00 | 0.00 | 0.00 | 26 | 1023.6 |
| 20260904062550 | 75 | 0 | 0.0 | 1.0 | 0.00 | 0.00 | 0.00 | 26 | 1023.5 |
| 20260904062042 | 75 | 0 | 0.0 | 1.0 | 0.00 | 0.00 | 0.00 | 24 | 1023.5 |
| 20260904061602 | 75 | 0 | 0.0 | 1.0 | 0.00 | 0.00 | 0.00 | 25 | 1023.4 |
| 20260904061046 | 75 | 0 | 0.0 | 2.0 | 0.00 | 0.00 | 0.00 | 24 | 1023.2 |
| 20260904060546 | 76 | 0 | 0.0 | 2.0 | 0.00 | 0.00 | 0.00 | 24 | 1023.2 |
| 20260904060112 | 76 | 0 | 0.0 | 2.0 | 0.00 | 0.00 | 0.00 | 24 | 1023.2 |
| 20260904055546 | 76 | 0 | 0.0 | 1.0 | 0.00 | 0.00 | 0.00 | 24 | 1023.0 |
| 20260904055045 | 76 | 0 | 0.0 | 0.0 | 0.00 | 0.00 | 0.00 | 24 | 1023.1 |
| 20260904054608 | 76 | 0 | 0.0 | 0.0 | 0.00 | 0.00 | 0.00 | 25 | 1023.0 |
| 20260904054045 | 75 | 0 | 0.0 | 1.0 | 0.00 | 0.00 | 0.00 | 24 | 1023.0 |
| 20260904053546 | 75 | 0 | 0.0 | 2.0 | 0.00 | 0.00 | 0.00 | 24 | 1023.0 |
| 20260904053101 | 75 | 0 | 0.0 | 3.0 | 0.00 | 0.00 | 0.00 | 24 | 1023.0 |